« Back
NWS Peachtree City, Ga » Text Product » ATL Terminal Aerodrome Forecast


Printer-friendly Version
Current Version              Previous Versions:   1  2  3  4  5  6  7  8  9  

Terminal Aerodrome Forecast

709
FTUS42 KFFC 251400 AAA
TAFATL
TAF AMD
KATL 251400Z 2514/2618 12009KT P6SM BKN015 BKN025
     FM251500 13007KT P6SM BKN025
     FM251800 13007KT P6SM VCSH BKN035
     FM252100 14009KT 6SM -SHRA BKN035
      TEMPO 2522/2524 3SM -TSRA BKN012CB
     FM260100 14007KT P6SM SCT025 BKN040
     FM260800 15006KT P6SM BKN009
     FM261500 16008KT P6SM BKN030=



USA.gov is the U.S. government's official web portal to all federal, state and local government web resources and services.